Flag for Ireland Weather past 2 weeks in Dundalk, Ireland

Now
72 °F

Mild.


Feels Like: 77 °F
Forecast: 54 / 67 °F
Wind: 8 mph from South

Location: Glenanne

Current Time: Jul 25, 2014 at 7:54:08 PM

Latest Report: Jul 25, 2014 at 7:00 PM


Visibility: 28 mi

Pressure: 30.06 "Hg

Humidity: 51%

Dew point: 52 °F

Location of DundalkLocation

Historic Weather in Dundalk — Graph

°F

Dundalk temperature yesterday

Maximum temperature yesterday: 77 °F (at 5:00 PM)
Minimum temperature yesterday: 58 °F (at 4:00 AM)
Average temperature yesterday: 68 °F

Past Weeks' High & Low Weather Summary

 TemperatureHumidityPressure
High77 °F (Jul 24, 5:00 PM)100% (Jul 10, 7:00 PM)30.23 "Hg (Jul 10, 7:00 PM)
Low49 °F (Jul 14, 4:00 AM)48% (Jul 24, 5:00 PM)29.67 "Hg (Jul 14, 4:00 PM)
Average62 °F84%29.99 "Hg
* Reported Jul 10 6:00 PM — Jul 25 6:00 PM, Dundalk, Weather by CustomWeather, © 2014

Note: Actual official high and low records may vary slightly from our data, if they occured in-between our weather recording intervals... More about our weather records

Advertising

Dundalk weather history for previous 24 hours

 ConditionsComfort  
Time TempWeatherWind HumidityBarometerVisibility
6:00 PM
Jul 25
74 °FMild.10 mph51%30.05 "Hg31 mi
5:00 PM74 °FMild.10 mph52%30.06 "Hg16 mi
4:00 PM75 °FMild.12 mph50%30.07 "Hg17 mi
3:00 PM75 °FMild.14 mph50%30.08 "Hg31 mi
2:00 PM75 °FMild.14 mph51%30.09 "Hg22 mi
1:00 PM75 °FMild.13 mph51%30.09 "Hg16 mi
12:00 PM74 °FMild.12 mph53%30.10 "Hg17 mi
11:00 AM73 °FMild.10 mph58%30.10 "Hg14 mi
10:00 AM71 °FMild.6 mph64%30.11 "Hg22 mi
9:00 AM68 °FMild.3 mph70%30.11 "Hg19 mi
8:00 AM65 °FMild.2 mph76%30.11 "Hg12 mi
7:00 AM61 °FCool.2 mph85%30.11 "Hg13 mi
6:00 AM58 °FCool.1 mph87%30.11 "Hg12 mi
5:00 AM60 °FCool.1 mph82%30.11 "Hg14 mi
4:00 AM60 °FCool.3 mph79%30.11 "Hg17 mi
3:00 AM62 °FCool.3 mph76%30.11 "Hg14 mi
2:00 AM61 °FCool.1 mph77%30.12 "Hg22 mi
1:00 AM63 °FMild.2 mph76%30.12 "Hg17 mi
12:00 AM63 °FMild.1 mph76%30.12 "Hg18 mi
11:00 PM
Jul 24
64 °FMild.1 mph72%30.12 "Hg19 mi
10:00 PM65 °FMild.1 mph66%30.11 "Hg19 mi
9:00 PM69 °FMild.2 mph57%30.11 "Hg22 mi
8:00 PM72 °FMild.5 mph51%30.10 "Hg28 mi
7:00 PM73 °FMild.7 mph53%30.10 "Hg22 mi
Weather by CustomWeather, © 2014

See weather overviewHow to use our weather pages